Location: Meanaryar
(48.4161°N, 4.7315°W)
Time: 10:41:36
(UTC+00:00)

Cosmos 1626 - Pass Details

Date: 18 September 2020
Orbit: 490 x 495 km, 82.5° (Epoch: 24 October)

Event Time Altitude Azimuth Distance (km) Brightness Sun altitude
Rises 20:12:43 0° 359° (N) 2,590 6.1 -18.2°
Reaches altitude 10° 20:15:04 10° 12° (NNE) 1,701 5.0 -18.6°
Enters shadow 20:17:25 25° 47° (NE) 1,036 3.5 -18.9°
